EUTELSAT 172B

Last updated on Mon Sep 15 2025 00:02:49 GMT+0000 (Coordinated Universal Time)

1 42741U 17029B 25257.11982285 -.00000017 00000+0 00000+0 0 9991 2 42741 0.0173 156.8545 0000187 148.4894 263.1519 1.00272687 30967
UTC large
Height (km)
Speed (km/s)
/
Latitude / Longitude
Inclination (degrees)
Orbital Period (minutes)
Azimuth
Elevation
Range (km)
Doppler Factor

Next 0 passes for location: London (51.5072 / 0.1276)

Sorry there are no passes over London.